Location: Innsbruck
(47.2657°N, 11.3914°E)
Time: 22:06:35
(UTC+01:00)

BEESAT 2 - Pass Details

Date: 03 December 2021
Orbit: 498 x 513 km, 64.9° (Epoch: 24 January)

Event Time Altitude Azimuth Distance (km) Brightness Sun altitude
Exits shadow 05:36:53 16° 0° (N) 1,396 ? -20.6°
Maximum altitude 05:38:45 22° 38° (NE) 1,153 ? -20.3°
Drops below altitude 10° 05:41:52 10° 92° (E) 1,743 ? -19.7°
Sets 05:44:24 0° 107° (ESE) 2,624 ? -19.3°
